65P/Gunn (2010)

Japanese version
Home page
Updated on February 4, 2013

---------------------------------------------------------------------

* Profile

* Pictures

* Orbital Elements

Epoch 2010 Feb. 13.0 TT = JDT 2455240.5
T 2010 Mar. 2.14454 TT                                  MPC
q   2.4403846            (2000.0)            P               Q
n   0.14517266     Peri.  196.63929     -0.09162759     +0.98159145
a   3.5854705      Node    68.35436     -0.89185828     -0.00603839
e   0.3193684      Incl.   10.38679     -0.44293702     -0.19089728
P   6.79
From 3083 observations 1997 June 11-2012 Nov. 13, mean residual 0".9.
     Nongravitational parameters Y1 = +0.21, Y2 = +0.0192.

* Finding Charts

* Magnitudes Graph

        m1 = 6.8 + 5 log d + 12.0 log r

---------------------------------------------------------------------

The orbital elements are published on M.P.E.C. 2012-V101.
The charts are made with StellaNavigator Ver.2.0 for Windows (AstroArts / ASCII).
The magnitudes graphs are made with Comet for Windows.

---------------------------------------------------------------------

Copyright(C) Seiichi Yoshida (comet@aerith.net). All rights reserved.